• In Hungary
  • List of Countries
  • For 7 days
  • Water Temperature
  • Satellite Maps
  • Weather Map
  • News
  • Weather Widgets
  • user-avatar
    Login

    Hourly Weather Verviers

    Today, 24 September, Monday

    Time Temperature Precipitation Wind Pressure Humidity
    00:00 +7°C° 0 mm 1 mps 748 mmHg 95%
    01:00 +7°C° 0 mm 1 mps 749 mmHg 95%
    02:00 +6°C° 0 mm 2 mps 749 mmHg 95%
    03:00 +5°C° 0 mm 2 mps 750 mmHg 95%
    04:00 +5°C° 0 mm 2 mps 750 mmHg 95%
    05:00 +5°C° 0 mm 2 mps 751 mmHg 94%
    06:00 +5°C° 0 mm 2 mps 752 mmHg 94%
    07:00 +7°C° 0 mm 2 mps 752 mmHg 87%
    08:00 +9°C° 0 mm 3 mps 753 mmHg 81%
    09:00 +11°C° 0 mm 3 mps 753 mmHg 74%
    10:00 +12°C° 0.1 mm 4 mps 753 mmHg 70%
    11:00 +12°C° 0.1 mm 4 mps 753 mmHg 66%
    12:00 +13°C° 0.1 mm 4 mps 753 mmHg 62%
    13:00 +13°C° 0.1 mm 4 mps 753 mmHg 62%
    14:00 +13°C° 0.1 mm 4 mps 753 mmHg 62%
    15:00 +13°C° 0.1 mm 4 mps 753 mmHg 63%
    16:00 +12°C° 0 mm 3 mps 754 mmHg 68%
    17:00 +10°C° 0 mm 3 mps 754 mmHg 74%
    18:00 +8°C° 0 mm 2 mps 754 mmHg 80%
    19:00 +8°C° 0 mm 2 mps 755 mmHg 82%
    20:00 +8°C° 0 mm 1 mps 755 mmHg 83%
    21:00 +7°C° 0 mm 1 mps 755 mmHg 85%
    22:00 +7°C° 0 mm 1 mps 756 mmHg 86%
    23:00 +6°C° 0 mm 1 mps 756 mmHg 87%

    Tomorrow, 25 September, Tuesday

    Time Temperature Precipitation Wind Pressure Humidity
    00:00 +6°C° 0 mm 1 mps 756 mmHg 89%
    01:00 +6°C° 0 mm 1 mps 756 mmHg 89%
    02:00 +6°C° 0 mm 1 mps 756 mmHg 90%
    03:00 +5°C° 0 mm 1 mps 756 mmHg 90%
    04:00 +5°C° 0 mm 1 mps 756 mmHg 90%
    05:00 +5°C° 0 mm 1 mps 756 mmHg 90%
    06:00 +5°C° 0 mm 1 mps 756 mmHg 91%
    07:00 +7°C° 0 mm 1 mps 757 mmHg 82%
    08:00 +10°C° 0 mm 1 mps 757 mmHg 73%
    09:00 +12°C° 0 mm 2 mps 757 mmHg 64%
    10:00 +13°C° 0 mm 2 mps 757 mmHg 59%
    11:00 +14°C° 0 mm 2 mps 757 mmHg 54%
    12:00 +15°C° 0 mm 2 mps 757 mmHg 49%
    13:00 +15°C° 0 mm 2 mps 756 mmHg 49%
    14:00 +15°C° 0 mm 2 mps 756 mmHg 49%
    15:00 +15°C° 0 mm 2 mps 756 mmHg 49%
    16:00 +13°C° 0 mm 2 mps 755 mmHg 56%
    17:00 +12°C° 0 mm 2 mps 755 mmHg 62%
    18:00 +9°C° 0 mm 2 mps 755 mmHg 69%
    19:00 +8°C° 0 mm 2 mps 755 mmHg 70%
    20:00 +8°C° 0 mm 2 mps 756 mmHg 71%
    21:00 +7°C° 0 mm 2 mps 756 mmHg 72%
    22:00 +7°C° 0 mm 2 mps 756 mmHg 71%
    23:00 +6°C° 0 mm 2 mps 755 mmHg 71%

    Day after tomorrow, 26 September, Wednesday

    Time Temperature Precipitation Wind Pressure Humidity
    00:00 +6°C° 0 mm 2 mps 755 mmHg 70%
    01:00 +7°C° 0 mm 1 mps 755 mmHg 70%
    02:00 +6°C° 0 mm 1 mps 755 mmHg 70%
    03:00 +6°C° 0 mm 1 mps 755 mmHg 69%
    04:00 +6°C° 0 mm 1 mps 754 mmHg 69%
    05:00 +6°C° 0 mm 1 mps 754 mmHg 68%
    06:00 +6°C° 0 mm 1 mps 754 mmHg 68%
    07:00 +9°C° 0 mm 1 mps 754 mmHg 61%
    08:00 +11°C° 0 mm 1 mps 755 mmHg 54%
    09:00 +14°C° 0 mm 1 mps 755 mmHg 47%
    10:00 +16°C° 0 mm 1 mps 755 mmHg 44%
    11:00 +18°C° 0 mm 1 mps 754 mmHg 41%
    12:00 +19°C° 0 mm 1 mps 754 mmHg 38%
    13:00 +20°C° 0 mm 1 mps 754 mmHg 39%
    14:00 +20°C° 0 mm 1 mps 753 mmHg 40%
    15:00 +20°C° 0 mm 1 mps 753 mmHg 41%
    16:00 +18°C° 0 mm 1 mps 753 mmHg 47%
    17:00 +14°C° 0 mm 1 mps 753 mmHg 53%
    18:00 +11°C° 0 mm 0 mps 753 mmHg 60%
    19:00 +12°C° 0 mm 1 mps 753 mmHg 61%
    20:00 +11°C° 0 mm 1 mps 753 mmHg 63%
    21:00 +11°C° 0 mm 1 mps 753 mmHg 64%
    22:00 +10°C° 0 mm 1 mps 753 mmHg 64%
    23:00 +10°C° 0 mm 1 mps 753 mmHg 65%

    27 September, Thursday

    Time Temperature Precipitation Wind Pressure Humidity
    00:00 +10°C° 0 mm 1 mps 753 mmHg 65%
    01:00 +10°C° 0 mm 1 mps 753 mmHg 65%
    02:00 +10°C° 0 mm 1 mps 753 mmHg 65%
    03:00 +9°C° 0 mm 1 mps 752 mmHg 66%
    04:00 +9°C° 0 mm 1 mps 752 mmHg 65%
    05:00 +9°C° 0 mm 1 mps 752 mmHg 65%
    06:00 +9°C° 0 mm 1 mps 752 mmHg 65%
    07:00 +12°C° 0 mm 1 mps 752 mmHg 59%
    08:00 +14°C° 0 mm 1 mps 752 mmHg 54%
    09:00 +18°C° 0 mm 1 mps 752 mmHg 48%
    10:00 +19°C° 0 mm 1 mps 752 mmHg 45%
    11:00 +21°C° 0 mm 1 mps 752 mmHg 42%
    12:00 +21°C° 0 mm 2 mps 751 mmHg 39%
    13:00 +21°C° 0 mm 2 mps 751 mmHg 41%
    14:00 +21°C° 0 mm 2 mps 750 mmHg 44%
    15:00 +21°C° 0 mm 2 mps 749 mmHg 46%
    16:00 +20°C° 0 mm 1 mps 749 mmHg 53%
    17:00 +18°C° 0 mm 1 mps 749 mmHg 60%
    18:00 +14°C° 0 mm 1 mps 748 mmHg 68%
    19:00 +14°C° 0 mm 1 mps 748 mmHg 70%
    20:00 +13°C° 0 mm 1 mps 748 mmHg 72%
    21:00 +12°C° 0 mm 2 mps 748 mmHg 74%
    22:00 +12°C° 0 mm 2 mps 747 mmHg 75%
    23:00 +10°C° 0 mm 2 mps 747 mmHg 75%

    28 September, Friday

    Time Temperature Precipitation Wind Pressure Humidity
    00:00 +10°C° 0 mm 2 mps 747 mmHg 76%
    01:00 +10°C° 0 mm 2 mps 746 mmHg 76%
    02:00 +10°C° 0 mm 2 mps 746 mmHg 75%
    03:00 +9°C° 0 mm 2 mps 746 mmHg 75%
    04:00 +9°C° 0 mm 2 mps 746 mmHg 77%
    05:00 +9°C° 0 mm 2 mps 745 mmHg 79%
    06:00 +10°C° 0 mm 1 mps 745 mmHg 81%
    07:00 +12°C° 0 mm 2 mps 746 mmHg 75%
    08:00 +14°C° 0 mm 2 mps 746 mmHg 70%
    09:00 +17°C° 0 mm 2 mps 746 mmHg 64%
    10:00 +18°C° 0 mm 2 mps 746 mmHg 61%
    11:00 +19°C° 0 mm 3 mps 746 mmHg 59%
    12:00 +20°C° 0 mm 3 mps 746 mmHg 57%
    13:00 +19°C° 0 mm 4 mps 746 mmHg 60%
    14:00 +18°C° 0 mm 4 mps 746 mmHg 64%
    15:00 +16°C° 0 mm 5 mps 746 mmHg 68%
    16:00 +15°C° 0 mm 5 mps 747 mmHg 71%
    17:00 +13°C° 0 mm 5 mps 747 mmHg 75%
    18:00 +12°C° 0 mm 4 mps 748 mmHg 78%
    19:00 +11°C° 0 mm 4 mps 748 mmHg 78%
    20:00 +10°C° 0 mm 4 mps 749 mmHg 78%
    21:00 +8°C° 0 mm 4 mps 750 mmHg 78%
    22:00 +8°C° 0 mm 3 mps 750 mmHg 80%
    23:00 +8°C° 0 mm 3 mps 750 mmHg 82%

    29 September, Saturday

    Time Temperature Precipitation Wind Pressure Humidity
    00:00 +7°C° 0 mm 3 mps 750 mmHg 84%
    01:00 +5°C° 0 mm 3 mps 750 mmHg 86%
    02:00 +5°C° 0 mm 3 mps 750 mmHg 88%
    03:00 +5°C° 0 mm 3 mps 750 mmHg 90%
    04:00 +4°C° 0 mm 3 mps 750 mmHg 90%
    05:00 +4°C° 0 mm 3 mps 751 mmHg 90%
    06:00 +4°C° 0 mm 3 mps 751 mmHg 90%
    07:00 +7°C° 0 mm 3 mps 751 mmHg 80%
    08:00 +8°C° 0 mm 4 mps 751 mmHg 69%
    09:00 +10°C° 0 mm 5 mps 751 mmHg 59%
    10:00 +12°C° 0 mm 5 mps 750 mmHg 54%
    11:00 +13°C° 0 mm 4 mps 750 mmHg 50%
    12:00 +14°C° 0 mm 4 mps 750 mmHg 46%
    13:00 +14°C° 0 mm 4 mps 749 mmHg 46%
    14:00 +14°C° 0 mm 4 mps 749 mmHg 46%
    15:00 +14°C° 0 mm 4 mps 748 mmHg 46%
    16:00 +12°C° 0 mm 4 mps 748 mmHg 51%
    17:00 +11°C° 0 mm 3 mps 748 mmHg 56%
    18:00 +9°C° 0 mm 3 mps 748 mmHg 61%
    19:00 +9°C° 0 mm 3 mps 748 mmHg 63%
    20:00 +8°C° 0 mm 3 mps 748 mmHg 65%
    21:00 +8°C° 0 mm 3 mps 748 mmHg 67%
    22:00 +7°C° 0 mm 3 mps 748 mmHg 69%
    23:00 +7°C° 0 mm 3 mps 747 mmHg 71%
    Show more